Terminal Aerodrome Forecast
Issued by NWS

Home | Current Version | Previous Version | Text Only | Print | Product List | Glossary On
Versions: 1 2 3 4 5 6 7 8 9 10 11 12 13 14 15 16 17
000
FTUS41 KPBZ 202300
TAFHLG
TAF
KHLG 202335Z 2100/2124 00000KT P6SM OVC025
      TEMPO 2100/2102 SCT025
     FM212100 09003KT P6SM SCT025=

USA.gov is the U.S. government's official web portal to all federal, state and local government web resources and services.